When you browse on this site, cookies collect data to enhance your experience and personalize the content and advertising you see.
Visit our Privacy Policy to learn more. By continuing to use the site, you agree to this use of cookies and data.
  • In Hungary
  • List of Countries
  • For 7 days
  • Water Temperature
  • Satellite Maps
  • Weather Map
  • News
  • Weather Widgets
  • user-avatar
    Login

    Hourly Weather Bobrowiec

    Today, 16 January, Wednesday

    Time Temperature Precipitation Wind Pressure Humidity
    00:00 +2°C° 0 mm 7 mps 740 mmHg 84%
    01:00 +1°C° 0 mm 4 mps 741 mmHg 83%
    02:00 0°C° 0 mm 4 mps 742 mmHg 86%
    03:00 0°C° 0 mm 3 mps 742 mmHg 88%
    04:00 +1°C° 0 mm 2 mps 743 mmHg 91%
    05:00 +1°C° 0.1 mm 2 mps 743 mmHg 92%
    06:00 +1°C° 0.1 mm 2 mps 744 mmHg 93%
    07:00 0°C° 0 mm 3 mps 744 mmHg 94%
    08:00 +1°C° 0.1 mm 3 mps 745 mmHg 94%
    09:00 +1°C° 0.1 mm 3 mps 745 mmHg 93%
    10:00 +2°C° 0.1 mm 3 mps 745 mmHg 93%
    11:00 +2°C° 0.1 mm 3 mps 745 mmHg 92%
    12:00 +2°C° 0.1 mm 3 mps 745 mmHg 92%
    13:00 +3°C° 0.1 mm 4 mps 745 mmHg 92%
    14:00 +3°C° 0 mm 4 mps 745 mmHg 90%
    15:00 +3°C° 0 mm 4 mps 745 mmHg 89%
    16:00 +3°C° 0 mm 4 mps 745 mmHg 87%
    17:00 +2°C° 0 mm 5 mps 744 mmHg 88%
    18:00 +2°C° 0 mm 5 mps 744 mmHg 88%
    19:00 +3°C° 0 mm 5 mps 744 mmHg 89%
    20:00 +3°C° 0 mm 6 mps 744 mmHg 88%
    21:00 +3°C° 0 mm 6 mps 743 mmHg 88%
    22:00 +3°C° 0 mm 6 mps 743 mmHg 88%
    23:00 +2°C° 0.1 mm 6 mps 742 mmHg 87%

    Tomorrow, 17 January, Thursday

    Time Temperature Precipitation Wind Pressure Humidity
    00:00 +2°C° 0.1 mm 6 mps 742 mmHg 86%
    01:00 +2°C° 0.1 mm 6 mps 741 mmHg 85%
    02:00 +2°C° 0.1 mm 6 mps 741 mmHg 84%
    03:00 0°C° 0.1 mm 7 mps 740 mmHg 83%
    04:00 0°C° 0.1 mm 7 mps 739 mmHg 82%
    05:00 0°C° 0.1 mm 7 mps 739 mmHg 80%
    06:00 0°C° 0.1 mm 7 mps 738 mmHg 79%
    07:00 0°C° 0.1 mm 7 mps 738 mmHg 77%
    08:00 0°C° 0.2 mm 7 mps 738 mmHg 77%
    09:00 +2°C° 0.2 mm 7 mps 738 mmHg 78%
    10:00 +2°C° 0.2 mm 7 mps 739 mmHg 78%
    11:00 +2°C° 0 mm 7 mps 739 mmHg 75%
    12:00 +3°C° 0 mm 7 mps 739 mmHg 72%
    13:00 +3°C° 0 mm 7 mps 739 mmHg 69%
    14:00 +3°C° 0 mm 6 mps 739 mmHg 70%
    15:00 +3°C° 0 mm 6 mps 739 mmHg 71%
    16:00 +2°C° 0 mm 6 mps 739 mmHg 72%
    17:00 +2°C° 0 mm 6 mps 739 mmHg 72%
    18:00 +2°C° 0 mm 6 mps 739 mmHg 73%
    19:00 +2°C° 0 mm 6 mps 739 mmHg 73%
    20:00 +1°C° 0 mm 6 mps 739 mmHg 73%
    21:00 +1°C° 0 mm 6 mps 739 mmHg 73%
    22:00 -1°C° 0 mm 6 mps 739 mmHg 72%
    23:00 -1°C° 0 mm 7 mps 740 mmHg 71%

    Day after tomorrow, 18 January, Friday

    Time Temperature Precipitation Wind Pressure Humidity
    00:00 -2°C° 0 mm 7 mps 740 mmHg 70%
    01:00 -2°C° 0 mm 7 mps 741 mmHg 69%
    02:00 -3°C° 0 mm 7 mps 741 mmHg 70%
    03:00 -3°C° 0 mm 7 mps 741 mmHg 71%
    04:00 -3°C° 0 mm 6 mps 741 mmHg 72%
    05:00 -3°C° 0.3 mm 6 mps 743 mmHg 74%
    06:00 -3°C° 0.3 mm 6 mps 744 mmHg 75%
    07:00 -3°C° 0.3 mm 6 mps 745 mmHg 77%
    08:00 -3°C° 0 mm 6 mps 747 mmHg 73%
    09:00 -3°C° 0 mm 6 mps 748 mmHg 68%
    10:00 -3°C° 0 mm 6 mps 750 mmHg 64%
    11:00 -3°C° 0 mm 6 mps 750 mmHg 63%
    12:00 -2°C° 0 mm 6 mps 751 mmHg 61%
    13:00 -1°C° 0 mm 5 mps 752 mmHg 60%
    14:00 -1°C° 0 mm 5 mps 752 mmHg 62%
    15:00 -2°C° 0 mm 4 mps 753 mmHg 64%
    16:00 -2°C° 0 mm 3 mps 753 mmHg 66%
    17:00 -3°C° 0 mm 4 mps 754 mmHg 70%
    18:00 -3°C° 0 mm 4 mps 754 mmHg 74%
    19:00 -3°C° 0 mm 4 mps 754 mmHg 78%
    20:00 -4°C° 0 mm 5 mps 754 mmHg 77%
    21:00 -4°C° 0 mm 5 mps 754 mmHg 77%
    22:00 -2°C° 0 mm 5 mps 754 mmHg 77%
    23:00 -2°C° 0 mm 5 mps 754 mmHg 77%

    19 January, Saturday

    Time Temperature Precipitation Wind Pressure Humidity
    00:00 -2°C° 0 mm 5 mps 755 mmHg 78%
    01:00 -2°C° 0 mm 4 mps 755 mmHg 78%
    02:00 -2°C° 0 mm 4 mps 755 mmHg 80%
    03:00 -1°C° 0 mm 3 mps 755 mmHg 82%
    04:00 -1°C° 0 mm 3 mps 755 mmHg 84%
    05:00 -2°C° 0 mm 3 mps 755 mmHg 86%
    06:00 -2°C° 0 mm 3 mps 755 mmHg 89%
    07:00 -2°C° 0 mm 2 mps 756 mmHg 91%
    08:00 -2°C° 0 mm 3 mps 756 mmHg 88%
    09:00 -1°C° 0 mm 3 mps 756 mmHg 86%
    10:00 -1°C° 0 mm 3 mps 756 mmHg 84%
    11:00 -1°C° 0 mm 3 mps 756 mmHg 82%
    12:00 -1°C° 0 mm 3 mps 756 mmHg 81%
    13:00 -1°C° 0 mm 3 mps 756 mmHg 80%
    14:00 -1°C° 0 mm 3 mps 755 mmHg 82%
    15:00 -1°C° 0 mm 3 mps 755 mmHg 83%
    16:00 -2°C° 0 mm 3 mps 755 mmHg 85%
    17:00 -2°C° 0 mm 2 mps 755 mmHg 84%
    18:00 -2°C° 0 mm 2 mps 755 mmHg 83%
    19:00 -2°C° 0 mm 2 mps 755 mmHg 82%
    20:00 -2°C° 0 mm 2 mps 755 mmHg 81%
    21:00 -2°C° 0 mm 2 mps 755 mmHg 80%
    22:00 0°C° 0 mm 1 mps 755 mmHg 79%
    23:00 0°C° 0 mm 1 mps 755 mmHg 79%

    20 January, Sunday

    Time Temperature Precipitation Wind Pressure Humidity
    00:00 -2°C° 0 mm 2 mps 755 mmHg 80%
    01:00 -3°C° 0 mm 2 mps 755 mmHg 80%
    02:00 -3°C° 0 mm 2 mps 755 mmHg 81%
    03:00 -3°C° 0 mm 2 mps 754 mmHg 83%
    04:00 -3°C° 0 mm 2 mps 754 mmHg 84%
    05:00 -3°C° 0 mm 2 mps 754 mmHg 86%
    06:00 -1°C° 0 mm 1 mps 754 mmHg 87%
    07:00 -1°C° 0 mm 1 mps 754 mmHg 89%
    08:00 -3°C° 0 mm 2 mps 754 mmHg 87%
    09:00 -2°C° 0 mm 2 mps 754 mmHg 85%
    10:00 -2°C° 0 mm 2 mps 755 mmHg 83%
    11:00 -1°C° 0 mm 2 mps 754 mmHg 80%
    12:00 -1°C° 0 mm 2 mps 754 mmHg 77%
    13:00 +1°C° 0 mm 2 mps 754 mmHg 74%
    14:00 -1°C° 0 mm 2 mps 754 mmHg 77%
    15:00 -1°C° 0 mm 2 mps 754 mmHg 80%
    16:00 -2°C° 0 mm 2 mps 754 mmHg 83%
    17:00 -2°C° 0.1 mm 2 mps 754 mmHg 83%
    18:00 -2°C° 0.1 mm 3 mps 754 mmHg 82%
    19:00 -2°C° 0.1 mm 3 mps 755 mmHg 82%
    20:00 -2°C° 0 mm 3 mps 755 mmHg 78%
    21:00 -4°C° 0 mm 3 mps 755 mmHg 74%
    22:00 -4°C° 0 mm 3 mps 756 mmHg 70%
    23:00 -4°C° 0 mm 3 mps 756 mmHg 70%

    21 January, Monday

    Time Temperature Precipitation Wind Pressure Humidity
    00:00 -4°C° 0 mm 3 mps 756 mmHg 69%
    01:00 -4°C° 0 mm 3 mps 757 mmHg 68%
    02:00 -4°C° 0 mm 3 mps 757 mmHg 69%
    03:00 -4°C° 0 mm 3 mps 757 mmHg 70%
    04:00 -5°C° 0 mm 4 mps 758 mmHg 71%
    05:00 -5°C° 0 mm 4 mps 758 mmHg 72%
    06:00 -5°C° 0 mm 4 mps 758 mmHg 72%
    07:00 -5°C° 0 mm 4 mps 759 mmHg 72%
    08:00 -4°C° 0 mm 4 mps 759 mmHg 70%
    09:00 -4°C° 0 mm 4 mps 760 mmHg 68%
    10:00 -3°C° 0 mm 4 mps 760 mmHg 66%
    11:00 -3°C° 0 mm 4 mps 761 mmHg 63%
    12:00 -3°C° 0 mm 4 mps 761 mmHg 60%
    13:00 -2°C° 0 mm 4 mps 761 mmHg 58%
    14:00 -3°C° 0 mm 4 mps 761 mmHg 61%
    15:00 -4°C° 0 mm 3 mps 762 mmHg 64%
    16:00 -3°C° 0 mm 2 mps 762 mmHg 68%
    17:00 -3°C° 0 mm 2 mps 762 mmHg 70%
    18:00 -4°C° 0 mm 2 mps 762 mmHg 72%
    19:00 -4°C° 0 mm 2 mps 762 mmHg 74%
    20:00 -4°C° 0 mm 2 mps 763 mmHg 74%
    21:00 -4°C° 0 mm 2 mps 763 mmHg 75%
    22:00 -4°C° 0 mm 2 mps 763 mmHg 76%
    23:00 -5°C° 0 mm 2 mps 763 mmHg 76%
    Show more